Location: Goettingen
(51.5300°N, 9.9433°E)
Time: 18:03:52
(UTC+02:00)

ISS - Pass Details

Date: 10 May 2026
Orbit: 414 x 424 km, 51.6° (Epoch: 13 May)

Event Time Altitude Azimuth Distance (km) Brightness Sun altitude
Rises 00:53:24 0° 272° (W) 2,354 0.2 -20.7°
Reaches altitude 10° 00:55:29 10° 273° (W) 1,492 -0.9 -20.8°
Enters shadow 00:57:24 32° 275° (W) 749 -2.5 -20.8°
